Weather History for Deadhorse, AK

Change the Weather History Date:

Friday, March 14, 2014

  Actual Average Record
Temperature  
Mean Temperature -10 °F -  
Max Temperature -5 °F -4 °F 19 °F (1989)
Min Temperature -15 °F -17 °F -47 °F (1991)
Degree Days  
Heating Degree Days 75    
Moisture  
Dew Point -14 °F    
Average Humidity 80    
Maximum Humidity 86    
Minimum Humidity 75    
Precipitation  
Precipitation 0.00 in - - ()
Sea Level Pressure  
Sea Level Pressure 29.42 in    
Wind  
Wind Speed 9 mph (NNW)    
Max Wind Speed 13 mph    
Max Gust Speed -    
Visibility 10 miles    
Events      
Averages and records for this station are not official NWS values.
T = Trace of Precipitation, MM = Missing Value Source: NWS Daily Summary

Daily Weather History Graph

Daily Weather History Graph

Search for Another Location

Airport:

Trip Planner

Search our weather history database for the weather conditions in past years. The results will help you decide how hot, cold, wet, or windy it might be!

Date:

Astronomy

Mar. 14, 2014 Rise Set
Actual Time 8:19 AM AKDT 7:48 PM AKDT
Civil Twilight 7:18 AM AKDT 8:49 PM AKDT
Nautical Twilight 6:03 AM AKDT 10:05 PM AKDT
Astronomical Twilight 4:32 AM AKDT 11:39 PM AKDT
Moon 5:47 PM AKDT (3/14) 7:48 AM AKDT (3/14)
Length of Visible Light 13h 31m
Length of Day
11h 28m
Waxing Gibbous, 97% of the Moon is Illuminated
Mar 14
Waxing Gibbous
Mar 16
Full
Mar 23
Last Quarter
Mar 30
New
Apr 7
First Quarter

Hourly Weather History & Observations

Time (AKDT) Temp. Windchill Dew Point Humidity Pressure Visibility Wind Dir Wind Speed Gust Speed Precip Events Conditions
12:53 AM -5.1 °F -24.3 °F -9.9 °F 80% 29.44 in 10.0 mi East 12.7 mph - N/A   Scattered Clouds
1:53 AM -8.0 °F -27.1 °F -11.9 °F 83% 29.44 in 10.0 mi ENE 11.5 mph - N/A   Clear
2:53 AM -9.0 °F -27.4 °F -13.0 °F 83% 29.44 in 10.0 mi ENE 10.4 mph - N/A   Clear
3:53 AM -8.0 °F -28.0 °F -11.9 °F 83% 29.43 in 10.0 mi ENE 12.7 mph - N/A   Clear
4:53 AM -7.1 °F -25.9 °F -11.9 °F 79% 29.44 in 10.0 mi NE 11.5 mph - N/A   Clear
5:53 AM -8.0 °F -28.0 °F -13.0 °F 79% 29.43 in 10.0 mi ENE 12.7 mph - N/A   Clear
6:53 AM -9.0 °F -28.4 °F -13.0 °F 83% 29.43 in 10.0 mi NE 11.5 mph - N/A   Clear
7:53 AM -11.0 °F -29.9 °F -15.0 °F 83% 29.42 in 10.0 mi ENE 10.4 mph - N/A   Partly Cloudy
8:53 AM -9.0 °F -23.8 °F -13.0 °F 83% 29.42 in 10.0 mi ENE 6.9 mph - N/A   Scattered Clouds
9:53 AM -11.0 °F - -14.1 °F 86% 29.42 in 10.0 mi Calm Calm - N/A   Scattered Clouds
10:53 AM -11.0 °F - -16.1 °F 78% 29.42 in 8.0 mi Calm Calm - N/A   Clear
11:53 AM -7.1 °F - -13.0 °F 75% 29.42 in 10.0 mi Calm Calm - N/A   Partly Cloudy
12:53 PM -8.0 °F - -13.0 °F 79% 29.42 in 10.0 mi Calm Calm - N/A   Partly Cloudy
1:53 PM -6.0 °F -14.7 °F -11.0 °F 79% 29.43 in 10.0 mi NW 3.5 mph - N/A   Clear
2:53 PM -6.0 °F -14.7 °F -11.0 °F 79% 29.42 in 10.0 mi WSW 3.5 mph - N/A   Clear
4:28 PM -5.8 °F -18.4 °F -11.2 °F 77% 29.41 in 10.0 mi West 5.8 mph - N/A   Scattered Clouds
4:53 PM -6.0 °F -18.6 °F -11.0 °F 79% 29.41 in 10.0 mi West 5.8 mph - N/A   Scattered Clouds
5:53 PM -8.0 °F -19.2 °F -11.9 °F 83% 29.42 in 10.0 mi WSW 4.6 mph - N/A   Scattered Clouds
6:53 PM -9.0 °F -26.4 °F -14.1 °F 79% 29.40 in 10.0 mi WNW 9.2 mph - N/A   Partly Cloudy
7:53 PM -11.0 °F -26.2 °F -16.1 °F 78% 29.41 in 10.0 mi West 6.9 mph - N/A   Scattered Clouds
8:53 PM -15.0 °F -31.0 °F -18.9 °F 82% 29.40 in 10.0 mi WSW 6.9 mph - N/A   Mostly Cloudy
9:53 PM -15.0 °F -31.0 °F -18.9 °F 82% 29.40 in 10.0 mi West 6.9 mph - N/A   Mostly Cloudy
10:53 PM -13.0 °F -28.6 °F -18.0 °F 78% 29.40 in 10.0 mi WSW 6.9 mph - N/A   Mostly Cloudy
11:53 PM -13.0 °F -27.0 °F -18.0 °F 78% 29.40 in 10.0 mi West 5.8 mph - N/A   Mostly Cloudy